H-2A R/B, 41341

Orbit data source: Space-Track

H-2A R/B, 41341 is space debris in LEO originally from a launch on Wed, 17 Feb 2016 UTC launched from the Tanegashima Space Center (TNSTA). Debris objects in space refer to the collection of defunct objects orbiting the Earth. Examples of debris include non-operational satellites, rocket bodies, and fragments generated from explosions, collisions, or faulty payload assembly.

Not visible in the next 10 days
Identifier
41341, 2016-012E
Orbit
LEO
Country
Flag of JPJP / JPN
Related business
Manufacturer
MHI Tobishima
Mission
Spacecraft
Bus & Motor
H-2A STAGE 2, Unknown motor
Mass
4,000 kg wet, 4,000 kg dry
Launch date (UTC)
2016-02-17 (10 years ago)
Launch vehicle
Unknown
Launch site
Tanegashima Space Center (TNSTA)
Object type
Payload
Rocket body
Debris
Shape & HBR
Cyl, 4.6 m
Radar Cross Section
35.186 m², Large (>1 m²)

Expand to show TLE details & history
Last TLE update: 2 days ago

TLE from 2 days ago
0 H-2A R/B
1 41341U 16012E   26171.45260648  .00037288  00000-0  47432-3 0  9996
2 41341  30.6208 248.3737 0003156 296.0926  63.9393 15.58050519572047
Epoch: 2026-06-20T10:51Z
TLE epoch observation values (Epoch: 2026-06-20T10:51:45.199Z)
Latitude
-0.00005°
Longitude
176.76827°
Altitude
390.802 km
Speed
7.679 km/s
True Right ascension
16h 33m 29s
True Declination
0° 00' 00"
Sunlit
Object was in full shadow at epoch
Visualization orbit readout
Latitude
Unknown
Longitude
Unknown
Altitude
Unknown
Speed
Unknown
Apparent Right ascension
Unknown
Apparent Declination
Unknown
Sunlit
N/A
Visualization observer readout
Local Sidereal Time
23:18:47
Azimuth
Unknown
Elevation
Unknown
Doppler factor
Unknown
Orbital elements
Apogee altitude
399.417 km
Perigee altitude
395.14 km
Semi-major axis
6,775.415 km
Eccentricity
0.00032
Inclination
30.6208°
RAAN
248.3737°
Arg. of periapsis
296.0926°
True anomaly
63.97179°
Mean anomaly
63.9393°
Eccentric anomaly
63.95555°
Mean motion
3.8917 °/min
Orbital period
92.5 mins
BSTAR
0.00047432
Loading maneuver chart data...
Computing Atmospheric mass density...
Loading historical data...
Loading historical data...
Loading historical data...
Loading historical data...
Loading historical data...
Loading historical data...
Loading historical data...

Documentation

Showing up to 5 results
|